WZZ1D EPWA-LDSP

Flight info

Callsign WZZ1D
Flight time 1h 42m
Altitude 36000
Route EVINA DCT KUKAM DCT BABKO DCT PATAK DCT OSDUK DCT KENEM
Aircraft A321/M-SDE1E2E3FGIJ1J4RWXY/LB1

Departure

Time 2026-05-08 05:49
Airport Warsaw Chopin Airport (EPWA)

Arrival

Time 2026-05-08 07:31
Airport Split Saint Jerome Airport (LDSP)
Time Latitude Longitude Altitude Speed Heading
2026-05-08 05:39 52.17088 20.96775 339 ft 0 kts 276°
2026-05-08 05:44 52.17088 20.96772 339 ft 1 kts 276°
2026-05-08 05:44 52.17090 20.96739 338 ft 5 kts 270°
2026-05-08 05:44 52.17061 20.96693 338 ft 8 kts 180°
2026-05-08 05:45 52.17004 20.96734 337 ft 11 kts 152°
2026-05-08 05:45 52.16925 20.96804 337 ft 15 kts 152°
2026-05-08 05:45 52.16822 20.96893 337 ft 18 kts 151°
2026-05-08 05:45 52.16707 20.96994 338 ft 16 kts 151°
2026-05-08 05:46 52.16644 20.97124 336 ft 16 kts 115°
2026-05-08 05:46 52.16595 20.97297 333 ft 18 kts 114°
2026-05-08 05:46 52.16542 20.97486 337 ft 19 kts 115°
2026-05-08 05:46 52.16485 20.97688 336 ft 20 kts 115°
2026-05-08 05:47 52.16424 20.97906 337 ft 22 kts 114°
2026-05-08 05:47 52.16359 20.98137 337 ft 23 kts 114°
2026-05-08 05:47 52.16302 20.98322 336 ft 12 kts 134°
2026-05-08 05:47 52.16221 20.98311 337 ft 14 kts 204°
2026-05-08 05:48 52.16160 20.98211 336 ft 12 kts 265°
2026-05-08 05:48 52.16170 20.98155 339 ft 0 kts 295°
2026-05-08 05:48 52.16258 20.97843 336 ft 71 kts 294°
2026-05-08 05:49 52.16568 20.96739 339 ft 140 kts 295°
2026-05-08 05:49 52.17035 20.95076 642 ft 169 kts 296°
2026-05-08 05:49 52.17534 20.93306 1363 ft 174 kts 297°
2026-05-08 05:49 52.18068 20.91402 1741 ft 196 kts 296°
2026-05-08 05:50 52.18342 20.89087 2037 ft 222 kts 267°
2026-05-08 05:50 52.18082 20.86450 2429 ft 248 kts 258°
2026-05-08 05:50 52.17652 20.83656 3188 ft 258 kts 256°
2026-05-08 05:50 52.17188 20.80831 4119 ft 259 kts 256°
2026-05-08 05:51 52.16731 20.77982 5071 ft 261 kts 256°
2026-05-08 05:51 52.16297 20.75131 5943 ft 264 kts 257°
2026-05-08 05:51 52.15712 20.72285 6782 ft 268 kts 243°
2026-05-08 05:51 52.14634 20.69795 7597 ft 272 kts 226°
2026-05-08 05:52 52.13171 20.67815 8422 ft 276 kts 218°
2026-05-08 05:52 52.11646 20.65898 9268 ft 279 kts 218°
2026-05-08 05:52 52.10105 20.63956 10098 ft 282 kts 218°
2026-05-08 05:52 52.08511 20.61946 10507 ft 301 kts 218°
2026-05-08 05:53 52.06798 20.59786 10804 ft 321 kts 218°
2026-05-08 05:53 52.05009 20.57529 11429 ft 328 kts 218°
2026-05-08 05:53 52.03194 20.55242 12167 ft 332 kts 218°
2026-05-08 05:53 52.01358 20.52930 12915 ft 336 kts 218°
2026-05-08 05:54 51.99503 20.50594 13682 ft 339 kts 218°
2026-05-08 05:54 51.97630 20.48235 14374 ft 342 kts 218°
2026-05-08 05:54 51.95653 20.46060 15041 ft 346 kts 208°
2026-05-08 05:54 51.93418 20.44576 15727 ft 350 kts 197°
2026-05-08 05:55 51.91013 20.43879 16421 ft 353 kts 186°
2026-05-08 05:55 51.88554 20.43527 17125 ft 356 kts 186°
2026-05-08 05:55 51.86078 20.43164 17829 ft 359 kts 186°
2026-05-08 05:55 51.83584 20.42786 18503 ft 362 kts 186°
2026-05-08 05:56 51.81070 20.42399 19109 ft 364 kts 186°
2026-05-08 05:56 51.78545 20.42007 19733 ft 366 kts 186°
2026-05-08 05:56 51.75999 20.41612 20369 ft 368 kts 186°
2026-05-08 05:56 51.73442 20.41220 20999 ft 370 kts 186°
2026-05-08 05:57 51.70870 20.40829 21632 ft 372 kts 186°
2026-05-08 05:57 51.68282 20.40440 22262 ft 375 kts 186°
2026-05-08 05:57 51.65680 20.40051 22888 ft 377 kts 186°
2026-05-08 05:57 51.63060 20.39659 23483 ft 380 kts 186°
2026-05-08 05:58 51.60420 20.39259 24006 ft 382 kts 186°
2026-05-08 05:58 51.57772 20.38856 24506 ft 383 kts 186°
2026-05-08 05:58 51.55114 20.38453 25013 ft 384 kts 186°
2026-05-08 05:58 51.52446 20.38052 25517 ft 385 kts 185°
2026-05-08 05:59 51.49772 20.37650 26029 ft 387 kts 185°
2026-05-08 05:59 51.47089 20.37248 26505 ft 388 kts 185°
2026-05-08 05:59 51.44396 20.36845 26994 ft 389 kts 185°
2026-05-08 05:59 51.41696 20.36440 27462 ft 391 kts 185°
2026-05-08 06:00 51.38989 20.35916 27917 ft 393 kts 190°
2026-05-08 06:00 51.36350 20.34752 28366 ft 395 kts 197°
2026-05-08 06:00 51.33728 20.33377 28810 ft 397 kts 197°
2026-05-08 06:00 51.31097 20.32001 29244 ft 399 kts 197°
2026-05-08 06:01 51.28484 20.30640 29659 ft 401 kts 197°
2026-05-08 06:01 51.25823 20.29258 30072 ft 403 kts 196°
2026-05-08 06:01 51.23148 20.27871 30413 ft 405 kts 197°
2026-05-08 06:01 51.20455 20.26477 30721 ft 408 kts 197°
2026-05-08 06:02 51.17744 20.25075 31021 ft 411 kts 197°
2026-05-08 06:02 51.15014 20.23667 31321 ft 414 kts 197°
2026-05-08 06:02 51.12266 20.22257 31614 ft 417 kts 197°
2026-05-08 06:02 51.09498 20.20839 31944 ft 418 kts 198°
2026-05-08 06:03 51.06726 20.19417 32357 ft 418 kts 198°
2026-05-08 06:03 51.03955 20.17991 32760 ft 418 kts 198°
2026-05-08 06:03 51.01187 20.16565 33149 ft 418 kts 198°
2026-05-08 06:03 50.98417 20.15144 33541 ft 419 kts 198°
2026-05-08 06:04 50.95644 20.13728 33926 ft 419 kts 198°
2026-05-08 06:04 50.92869 20.12311 34268 ft 419 kts 198°
2026-05-08 06:04 50.90093 20.10894 34576 ft 420 kts 198°
2026-05-08 06:04 50.87310 20.09475 34848 ft 421 kts 199°
2026-05-08 06:05 50.84523 20.08052 35132 ft 422 kts 199°
2026-05-08 06:05 50.81725 20.06626 35414 ft 423 kts 199°
2026-05-08 06:05 50.78921 20.05201 35690 ft 423 kts 199°
2026-05-08 06:05 50.77065 20.04261 35877 ft 424 kts 199°
2026-05-08 06:06 50.74250 20.02839 36054 ft 426 kts 199°
2026-05-08 06:06 50.68646 20.00010 36089 ft 421 kts 199°
2026-05-08 06:07 50.62180 19.96737 36093 ft 420 kts 199°
2026-05-08 06:07 50.57513 19.94374 36092 ft 420 kts 199°
2026-05-08 06:08 50.51934 19.91571 36091 ft 421 kts 199°
2026-05-08 06:08 50.46355 19.88776 36092 ft 421 kts 199°
2026-05-08 06:09 50.40764 19.85983 36094 ft 422 kts 199°
2026-05-08 06:09 50.35168 19.83202 36092 ft 422 kts 199°
2026-05-08 06:10 50.29566 19.80419 36096 ft 422 kts 199°
2026-05-08 06:10 50.23958 19.77638 36102 ft 423 kts 199°
2026-05-08 06:11 50.18347 19.74859 36102 ft 423 kts 199°
2026-05-08 06:11 50.12741 19.72085 36096 ft 422 kts 199°
2026-05-08 06:12 50.07180 19.69342 36095 ft 422 kts 199°
2026-05-08 06:12 50.01579 19.66593 36096 ft 422 kts 199°
2026-05-08 06:13 49.95977 19.63858 36096 ft 422 kts 199°
2026-05-08 06:13 49.90374 19.61127 36092 ft 422 kts 199°
2026-05-08 06:14 49.84771 19.58391 36087 ft 422 kts 200°
2026-05-08 06:14 49.79167 19.55652 36084 ft 422 kts 200°
2026-05-08 06:15 49.73564 19.52928 36078 ft 422 kts 200°
2026-05-08 06:15 49.67956 19.50227 36076 ft 422 kts 200°
2026-05-08 06:16 49.62353 19.47537 36076 ft 422 kts 199°
2026-05-08 06:16 49.56559 19.45884 36077 ft 425 kts 191°
2026-05-08 06:17 49.47792 19.43879 36067 ft 424 kts 192°
2026-05-08 06:17 49.41949 19.42549 36066 ft 424 kts 191°
2026-05-08 06:18 49.36103 19.41217 36069 ft 425 kts 192°
2026-05-08 06:18 49.30251 19.39891 36067 ft 425 kts 192°
2026-05-08 06:19 49.24397 19.38580 36064 ft 425 kts 192°
2026-05-08 06:19 49.18550 19.37262 36068 ft 425 kts 192°
2026-05-08 06:20 49.12709 19.35939 36061 ft 425 kts 192°
2026-05-08 06:20 49.06863 19.34619 36061 ft 424 kts 192°
2026-05-08 06:21 49.01021 19.33307 36058 ft 424 kts 192°
2026-05-08 06:21 48.95178 19.31993 36055 ft 424 kts 192°
2026-05-08 06:22 48.89375 19.30708 36055 ft 424 kts 192°
2026-05-08 06:22 48.83498 19.29414 36056 ft 424 kts 192°
2026-05-08 06:23 48.77664 19.28118 36050 ft 424 kts 192°
2026-05-08 06:23 48.71830 19.26819 36049 ft 424 kts 192°
2026-05-08 06:24 48.66036 19.25538 36052 ft 424 kts 192°
2026-05-08 06:24 48.60208 19.24256 36050 ft 423 kts 192°
2026-05-08 06:25 48.54341 19.22970 36052 ft 423 kts 192°
2026-05-08 06:25 48.48555 19.21697 36047 ft 423 kts 193°
2026-05-08 06:26 48.42731 19.20415 36052 ft 423 kts 193°
2026-05-08 06:26 48.36901 19.19138 36051 ft 423 kts 193°
2026-05-08 06:27 48.31077 19.17874 36053 ft 423 kts 193°
2026-05-08 06:27 48.25257 19.16608 36053 ft 423 kts 193°
2026-05-08 06:28 48.19434 19.15338 36056 ft 423 kts 193°
2026-05-08 06:28 48.13607 19.14083 36054 ft 423 kts 193°
2026-05-08 06:29 48.07793 19.12799 36056 ft 421 kts 196°
2026-05-08 06:29 48.02210 19.10408 36058 ft 417 kts 201°
2026-05-08 06:30 47.96661 19.07894 36058 ft 417 kts 201°
2026-05-08 06:30 47.91106 19.05384 36056 ft 417 kts 201°
2026-05-08 06:31 47.85551 19.02886 36062 ft 417 kts 201°
2026-05-08 06:31 47.79998 19.00389 36058 ft 417 kts 201°
2026-05-08 06:32 47.74452 18.97885 36058 ft 417 kts 201°
2026-05-08 06:32 47.68905 18.95396 36062 ft 416 kts 201°
2026-05-08 06:33 47.63355 18.92916 36066 ft 416 kts 201°
2026-05-08 06:33 47.57811 18.90442 36067 ft 416 kts 201°
2026-05-08 06:34 47.52266 18.87973 36072 ft 416 kts 201°
2026-05-08 06:34 47.46718 18.85515 36072 ft 416 kts 202°
2026-05-08 06:35 47.41174 18.83056 36070 ft 416 kts 202°
2026-05-08 06:35 47.35668 18.80617 36074 ft 416 kts 202°
2026-05-08 06:36 47.30129 18.78169 36070 ft 416 kts 202°
2026-05-08 06:36 47.24586 18.75733 36067 ft 416 kts 202°
2026-05-08 06:37 47.19048 18.73298 36070 ft 415 kts 202°
2026-05-08 06:37 47.13510 18.70874 36067 ft 415 kts 202°
2026-05-08 06:38 47.07974 18.68448 36073 ft 415 kts 202°
2026-05-08 06:38 47.02443 18.66031 36070 ft 415 kts 202°
2026-05-08 06:39 46.96906 18.63627 36077 ft 415 kts 202°
2026-05-08 06:39 46.91378 18.61223 36077 ft 414 kts 202°
2026-05-08 06:40 46.85856 18.58829 36073 ft 414 kts 202°
2026-05-08 06:40 46.80336 18.56444 36075 ft 414 kts 202°
2026-05-08 06:41 46.74814 18.54048 36078 ft 414 kts 202°
2026-05-08 06:41 46.69291 18.51664 36080 ft 414 kts 202°
2026-05-08 06:42 46.63765 18.49291 36078 ft 414 kts 202°
2026-05-08 06:42 46.58244 18.46929 36081 ft 413 kts 202°
2026-05-08 06:43 46.52730 18.44565 36079 ft 413 kts 202°
2026-05-08 06:43 46.47219 18.42205 36084 ft 413 kts 202°
2026-05-08 06:44 46.41710 18.39857 36081 ft 413 kts 202°
2026-05-08 06:44 46.36207 18.37513 36090 ft 412 kts 202°
2026-05-08 06:45 46.30735 18.35196 36085 ft 412 kts 202°
2026-05-08 06:45 46.25234 18.32877 36086 ft 412 kts 202°
2026-05-08 06:46 46.19738 18.30553 36089 ft 411 kts 202°
2026-05-08 06:46 46.14241 18.28230 36081 ft 411 kts 202°
2026-05-08 06:47 46.08747 18.25916 36087 ft 412 kts 202°
2026-05-08 06:47 46.03248 18.23600 36083 ft 412 kts 202°
2026-05-08 06:48 45.97753 18.21290 36080 ft 412 kts 202°
2026-05-08 06:48 45.92248 18.18990 36078 ft 412 kts 202°
2026-05-08 06:49 45.86740 18.16701 36077 ft 412 kts 201°
2026-05-08 06:49 45.81235 18.14406 36076 ft 412 kts 201°
2026-05-08 06:50 45.75854 18.11702 36076 ft 409 kts 207°
2026-05-08 06:50 45.70573 18.08675 36079 ft 409 kts 207°
2026-05-08 06:51 45.65317 18.05684 36081 ft 409 kts 207°
2026-05-08 06:51 45.60024 18.02668 36085 ft 410 kts 206°
2026-05-08 06:52 45.54728 17.99650 36084 ft 410 kts 206°
2026-05-08 06:52 45.49430 17.96638 36082 ft 410 kts 206°
2026-05-08 06:53 45.44126 17.93631 36081 ft 410 kts 206°
2026-05-08 06:53 45.38813 17.90628 36083 ft 411 kts 206°
2026-05-08 06:54 45.33498 17.87628 36084 ft 411 kts 206°
2026-05-08 06:54 45.29042 17.85118 36090 ft 412 kts 206°
2026-05-08 06:55 45.23714 17.82126 36088 ft 412 kts 206°
2026-05-08 06:55 45.18392 17.79137 36090 ft 412 kts 206°
2026-05-08 06:56 45.13067 17.76156 36089 ft 411 kts 205°
2026-05-08 06:56 45.07742 17.73190 36097 ft 411 kts 205°
2026-05-08 06:57 45.02464 17.70246 36101 ft 410 kts 205°
2026-05-08 06:57 44.97150 17.67285 36102 ft 410 kts 205°
2026-05-08 06:58 44.91842 17.64332 36104 ft 410 kts 205°
2026-05-08 06:58 44.86534 17.61382 36105 ft 410 kts 205°
2026-05-08 06:59 44.81231 17.58444 36106 ft 410 kts 205°
2026-05-08 06:59 44.75920 17.55511 36104 ft 410 kts 205°
2026-05-08 07:00 44.70605 17.52590 36099 ft 410 kts 205°
2026-05-08 07:00 44.65298 17.49672 36094 ft 410 kts 205°
2026-05-08 07:01 44.59991 17.46758 36087 ft 409 kts 205°
2026-05-08 07:01 44.54683 17.43849 36077 ft 409 kts 205°
2026-05-08 07:02 44.49384 17.40946 36082 ft 409 kts 205°
2026-05-08 07:02 44.44083 17.38051 36086 ft 409 kts 205°
2026-05-08 07:03 44.38781 17.35170 36082 ft 409 kts 205°
2026-05-08 07:03 44.33473 17.32289 36078 ft 409 kts 205°
2026-05-08 07:04 44.28169 17.29408 36075 ft 409 kts 205°
2026-05-08 07:04 44.22871 17.26536 36074 ft 408 kts 205°
2026-05-08 07:05 44.17601 17.23689 35861 ft 410 kts 205°
2026-05-08 07:05 44.14945 17.22257 35604 ft 409 kts 205°
2026-05-08 07:05 44.12252 17.20807 35347 ft 410 kts 205°
2026-05-08 07:06 44.09622 17.19391 35090 ft 411 kts 205°
2026-05-08 07:06 44.06936 17.17947 34777 ft 407 kts 205°
2026-05-08 07:06 44.04341 17.16553 34326 ft 404 kts 205°
2026-05-08 07:06 44.01728 17.15148 33869 ft 402 kts 205°
2026-05-08 07:07 43.99130 17.13752 33417 ft 398 kts 204°
2026-05-08 07:07 43.96563 17.12375 32974 ft 394 kts 204°
2026-05-08 07:07 43.94017 17.11011 32530 ft 390 kts 204°
2026-05-08 07:07 43.91495 17.09657 32090 ft 387 kts 204°
2026-05-08 07:08 43.88999 17.08319 31661 ft 384 kts 204°
2026-05-08 07:08 43.86516 17.06991 31230 ft 381 kts 204°
2026-05-08 07:08 43.84049 17.05675 30792 ft 379 kts 203°
2026-05-08 07:08 43.81597 17.04370 30387 ft 377 kts 203°
2026-05-08 07:09 43.79156 17.03072 29946 ft 375 kts 203°
2026-05-08 07:09 43.76729 17.01783 29520 ft 372 kts 203°
2026-05-08 07:09 43.74326 17.00510 29115 ft 369 kts 202°
2026-05-08 07:09 43.71938 16.99245 28732 ft 366 kts 202°
2026-05-08 07:10 43.69571 16.97991 28345 ft 363 kts 202°
2026-05-08 07:10 43.67219 16.96747 27956 ft 360 kts 202°
2026-05-08 07:10 43.64887 16.95513 27554 ft 358 kts 202°
2026-05-08 07:10 43.62620 16.94133 27162 ft 354 kts 210°
2026-05-08 07:11 43.60493 16.92446 26776 ft 351 kts 211°
2026-05-08 07:11 43.58379 16.90778 26389 ft 349 kts 211°
2026-05-08 07:11 43.56275 16.89129 25999 ft 346 kts 210°
2026-05-08 07:11 43.54187 16.87496 25599 ft 344 kts 210°
2026-05-08 07:12 43.52109 16.85873 25220 ft 342 kts 210°
2026-05-08 07:12 43.50049 16.84264 24818 ft 340 kts 210°
2026-05-08 07:12 43.47993 16.82659 24413 ft 339 kts 210°
2026-05-08 07:12 43.45941 16.81058 24005 ft 338 kts 210°
2026-05-08 07:13 43.43893 16.79462 23590 ft 338 kts 210°
2026-05-08 07:13 43.41847 16.77871 23125 ft 337 kts 210°
2026-05-08 07:13 43.39810 16.76290 22706 ft 335 kts 210°
2026-05-08 07:13 43.37787 16.74719 22272 ft 333 kts 210°
2026-05-08 07:14 43.35861 16.72989 21839 ft 330 kts 220°
2026-05-08 07:14 43.34303 16.70700 21428 ft 328 kts 234°
2026-05-08 07:14 43.33212 16.67954 21011 ft 328 kts 249°
2026-05-08 07:14 43.32655 16.64929 20591 ft 328 kts 263°
2026-05-08 07:15 43.32509 16.61807 20175 ft 327 kts 265°
2026-05-08 07:15 43.32380 16.58689 19745 ft 327 kts 265°
2026-05-08 07:15 43.32244 16.55575 19329 ft 327 kts 265°
2026-05-08 07:15 43.32101 16.52462 18911 ft 327 kts 265°
2026-05-08 07:16 43.31957 16.49348 18488 ft 327 kts 265°
2026-05-08 07:16 43.31814 16.46222 18024 ft 328 kts 265°
2026-05-08 07:16 43.31673 16.43101 17592 ft 327 kts 265°
2026-05-08 07:16 43.31534 16.39995 17172 ft 325 kts 265°
2026-05-08 07:17 43.31395 16.36901 16751 ft 324 kts 265°
2026-05-08 07:17 43.31256 16.33817 16333 ft 323 kts 265°
2026-05-08 07:17 43.31116 16.30744 15916 ft 322 kts 266°
2026-05-08 07:17 43.30974 16.27675 15501 ft 322 kts 266°
2026-05-08 07:18 43.30833 16.24614 15089 ft 321 kts 266°
2026-05-08 07:18 43.30690 16.21556 14679 ft 321 kts 266°
2026-05-08 07:18 43.30543 16.18502 14265 ft 321 kts 265°
2026-05-08 07:18 43.30116 16.15508 13853 ft 320 kts 251°
2026-05-08 07:19 43.29186 16.12789 13409 ft 319 kts 237°
2026-05-08 07:19 43.27805 16.10433 13002 ft 316 kts 224°
2026-05-08 07:19 43.26257 16.08305 12599 ft 314 kts 224°
2026-05-08 07:19 43.24723 16.06181 12201 ft 313 kts 224°
2026-05-08 07:20 43.23199 16.04062 11795 ft 311 kts 225°
2026-05-08 07:20 43.21685 16.01951 11424 ft 309 kts 224°
2026-05-08 07:20 43.20195 15.99877 11070 ft 303 kts 224°
2026-05-08 07:20 43.18739 15.97856 10538 ft 291 kts 224°
2026-05-08 07:21 43.17404 15.95815 10121 ft 289 kts 237°
2026-05-08 07:21 43.16686 15.93252 9686 ft 291 kts 262°
2026-05-08 07:21 43.16820 15.90498 9236 ft 292 kts 287°
2026-05-08 07:21 43.17784 15.88067 8788 ft 293 kts 312°
2026-05-08 07:22 43.19227 15.86096 8338 ft 294 kts 316°
2026-05-08 07:22 43.20784 15.84288 7896 ft 294 kts 331°
2026-05-08 07:22 43.22721 15.83481 7452 ft 293 kts 359°
2026-05-08 07:22 43.24694 15.83965 7040 ft 288 kts 27°
2026-05-08 07:23 43.26288 15.85548 6672 ft 283 kts 48°
2026-05-08 07:23 43.27662 15.87471 6269 ft 283 kts 48°
2026-05-08 07:23 43.29035 15.89399 5921 ft 280 kts 48°
2026-05-08 07:23 43.30395 15.91310 5568 ft 278 kts 48°
2026-05-08 07:24 43.31744 15.93204 5162 ft 274 kts 48°
2026-05-08 07:24 43.33034 15.95007 5018 ft 255 kts 48°
2026-05-08 07:24 43.34265 15.96728 4934 ft 251 kts 48°
2026-05-08 07:24 43.35486 15.98440 4822 ft 250 kts 48°
2026-05-08 07:25 43.36704 16.00147 4700 ft 250 kts 48°
2026-05-08 07:25 43.37939 16.01823 4603 ft 250 kts 45°
2026-05-08 07:25 43.40180 16.05244 4217 ft 235 kts 55°
2026-05-08 07:26 43.41158 16.07001 3916 ft 234 kts 56°
2026-05-08 07:26 43.42126 16.08734 3598 ft 221 kts 56°
2026-05-08 07:26 43.43038 16.10359 3353 ft 210 kts 56°
2026-05-08 07:26 43.43892 16.11882 3075 ft 195 kts 57°
2026-05-08 07:27 43.44708 16.13340 2810 ft 189 kts 55°
2026-05-08 07:27 43.45488 16.14735 2586 ft 179 kts 56°
2026-05-08 07:27 43.46225 16.16050 2324 ft 169 kts 56°
2026-05-08 07:27 43.46912 16.17278 2112 ft 153 kts 56°
2026-05-08 07:28 43.47535 16.18391 1914 ft 142 kts 56°
2026-05-08 07:28 43.48125 16.19448 1731 ft 137 kts 56°
2026-05-08 07:28 43.48705 16.20488 1543 ft 137 kts 56°
2026-05-08 07:28 43.49287 16.21530 1363 ft 139 kts 56°
2026-05-08 07:29 43.49873 16.22581 1195 ft 137 kts 53°
2026-05-08 07:29 43.50452 16.23620 999 ft 137 kts 54°
2026-05-08 07:29 43.51024 16.24672 811 ft 137 kts 53°
2026-05-08 07:29 43.51609 16.25716 639 ft 138 kts 51°
2026-05-08 07:30 43.52191 16.26743 461 ft 138 kts 51°
2026-05-08 07:30 43.52780 16.27784 272 ft 138 kts 53°
2026-05-08 07:30 43.53360 16.28833 88 ft 136 kts 53°
2026-05-08 07:30 43.53844 16.29707 72 ft 90 kts 53°
2026-05-08 07:31 43.54132 16.30225 61 ft 56 kts 52°
2026-05-08 07:31 43.54358 16.30631 53 ft 51 kts 52°
2026-05-08 07:31 43.54533 16.30948 51 ft 22 kts 55°
2026-05-08 07:31 43.54562 16.31057 52 ft 3 kts 17°
2026-05-08 07:32 43.54569 16.31024 53 ft 6 kts 255°
2026-05-08 07:32 43.54534 16.30954 52 ft 11 kts 236°
2026-05-08 07:32 43.54480 16.30853 50 ft 15 kts 233°
2026-05-08 07:32 43.54412 16.30729 53 ft 17 kts 232°
2026-05-08 07:33 43.54340 16.30600 54 ft 17 kts 232°
2026-05-08 07:33 43.54269 16.30472 55 ft 16 kts 232°
2026-05-08 07:33 43.54198 16.30345 53 ft 18 kts 232°
2026-05-08 07:33 43.54122 16.30206 60 ft 17 kts 232°
2026-05-08 07:34 43.54050 16.30117 60 ft 14 kts 201°
2026-05-08 07:34 43.53951 16.30078 64 ft 15 kts 195°
2026-05-08 07:34 43.53884 16.30019 65 ft 12 kts 230°
2026-05-08 07:34 43.53838 16.29936 66 ft 10 kts 232°
2026-05-08 07:35 43.53802 16.29871 65 ft 4 kts 230°
2026-05-08 07:35 43.53787 16.29870 61 ft 1 kts 159°
2026-05-08 07:35 43.53782 16.29884 63 ft 2 kts 115°
2026-05-08 07:35 43.53777 16.29895 64 ft 2 kts 116°
2026-05-08 07:36 43.53770 16.29916 62 ft 3 kts 115°
2026-05-08 07:36 43.53766 16.29928 65 ft 0 kts 115°
2026-05-08 07:36 43.53765 16.29932 65 ft 0 kts 115°
2026-05-08 07:36 43.53763 16.29936 65 ft 0 kts 115°